TimeMDT,TemperatureF,Dew PointF,Humidity,Sea Level PressureIn,VisibilityMPH,Wind Direction,Wind SpeedMPH,Gust SpeedMPH,PrecipitationIn,Events,Conditions,WindDirDegrees,DateUTC
12:15 AM,50.0,19.4,30,30.19,10.0,NE,11.5,16.1,N/A,,Scattered Clouds,50,2014-03-12 06:15:00
12:35 AM,48.2,21.2,34,30.20,10.0,ENE,15.0,19.6,N/A,,Clear,60,2014-03-12 06:35:00
12:55 AM,48.2,21.2,34,30.20,10.0,ENE,19.6,-,N/A,,Clear,60,2014-03-12 06:55:00
1:15 AM,48.2,21.2,34,30.20,10.0,NE,20.7,24.2,N/A,,Clear,50,2014-03-12 07:15:00
1:35 AM,48.2,21.2,34,30.20,10.0,NE,20.7,27.6,N/A,,Clear,50,2014-03-12 07:35:00
1:55 AM,48.2,21.2,34,30.21,10.0,NE,19.6,25.3,N/A,,Clear,50,2014-03-12 07:55:00
2:15 AM,48.2,21.2,34,30.21,10.0,NE,21.9,27.6,N/A,,Clear,40,2014-03-12 08:15:00
2:35 AM,48.2,21.2,34,30.21,10.0,NE,21.9,27.6,N/A,,Clear,40,2014-03-12 08:35:00
2:55 AM,48.2,21.2,34,30.21,10.0,NE,18.4,28.8,N/A,,Clear,40,2014-03-12 08:55:00
3:15 AM,46.4,21.2,37,30.21,10.0,NE,23.0,-,N/A,,Partly Cloudy,50,2014-03-12 09:15:00
3:35 AM,46.4,23.0,40,30.21,10.0,NE,20.7,24.2,N/A,,Partly Cloudy,50,2014-03-12 09:35:00
3:55 AM,46.4,23.0,40,30.21,10.0,NE,17.3,-,N/A,,Clear,50,2014-03-12 09:55:00
4:15 AM,44.6,23.0,43,30.21,10.0,NE,16.1,-,N/A,,Clear,40,2014-03-12 10:15:00
4:35 AM,46.4,23.0,40,30.21,10.0,NNE,15.0,-,N/A,,Clear,30,2014-03-12 10:35:00
4:55 AM,46.4,23.0,40,30.22,10.0,NNE,17.3,21.9,N/A,,Clear,30,2014-03-12 10:55:00
5:15 AM,44.6,23.0,43,30.21,10.0,NE,18.4,24.2,N/A,,Clear,50,2014-03-12 11:15:00
5:35 AM,46.4,23.0,40,30.22,10.0,NE,20.7,27.6,N/A,,Clear,40,2014-03-12 11:35:00
5:55 AM,44.6,23.0,43,30.22,10.0,NE,17.3,25.3,N/A,,Clear,40,2014-03-12 11:55:00
6:15 AM,44.6,23.0,43,30.23,10.0,NE,17.3,23.0,N/A,,Clear,40,2014-03-12 12:15:00
6:35 AM,42.8,23.0,46,30.23,10.0,North,13.8,-,N/A,,Clear,360,2014-03-12 12:35:00
6:55 AM,42.8,23.0,46,30.24,10.0,North,11.5,-,N/A,,Clear,360,2014-03-12 12:55:00
7:15 AM,42.8,21.2,42,30.25,10.0,NNE,20.7,-,N/A,,Clear,30,2014-03-12 13:15:00
7:35 AM,44.6,21.2,39,30.25,10.0,NE,20.7,28.8,N/A,,Clear,50,2014-03-12 13:35:00
7:55 AM,44.6,21.2,39,30.26,10.0,ENE,17.3,25.3,N/A,,Clear,60,2014-03-12 13:55:00
8:15 AM,44.6,21.2,39,30.27,10.0,NE,16.1,24.2,N/A,,Clear,40,2014-03-12 14:15:00
8:35 AM,44.6,21.2,39,30.27,10.0,ENE,12.7,-,N/A,,Clear,60,2014-03-12 14:35:00
8:55 AM,44.6,21.2,39,30.28,10.0,ENE,9.2,-,N/A,,Clear,60,2014-03-12 14:55:00
9:15 AM,46.4,21.2,37,30.29,10.0,SE,5.8,-,N/A,,Clear,130,2014-03-12 15:15:00
9:35 AM,44.6,23.0,43,30.29,10.0,SE,4.6,-,N/A,,Clear,130,2014-03-12 15:35:00
9:55 AM,46.4,23.0,40,30.29,10.0,South,3.5,-,N/A,,Clear,170,2014-03-12 15:55:00
10:15 AM,46.4,23.0,40,30.29,10.0,SW,3.5,-,N/A,,Clear,220,2014-03-12 16:15:00
10:35 AM,48.2,21.2,34,30.29,10.0,Calm,Calm,-,N/A,,Clear,0,2014-03-12 16:35:00
10:55 AM,51.8,19.4,28,30.28,10.0,North,8.1,-,N/A,,Clear,10,2014-03-12 16:55:00
11:15 AM,53.6,17.6,24,30.28,10.0,NNE,9.2,-,N/A,,Clear,20,2014-03-12 17:15:00
11:35 AM,55.4,17.6,23,30.27,10.0,NNE,9.2,-,N/A,,Clear,30,2014-03-12 17:35:00
11:55 AM,55.4,17.6,23,30.26,10.0,North,10.4,18.4,N/A,,Clear,360,2014-03-12 17:55:00
12:15 PM,57.2,17.6,21,30.25,10.0,Calm,Calm,-,N/A,,Clear,0,2014-03-12 18:15:00
12:35 PM,57.2,17.6,21,30.24,10.0,West,3.5,-,N/A,,Clear,280,2014-03-12 18:35:00
12:55 PM,59.0,17.6,20,30.23,10.0,NNW,4.6,-,N/A,,Clear,340,2014-03-12 18:55:00
1:15 PM,59.0,17.6,20,30.22,10.0,West,3.5,-,N/A,,Clear,280,2014-03-12 19:15:00
1:35 PM,59.0,17.6,20,30.20,10.0,SW,5.8,-,N/A,,Clear,220,2014-03-12 19:35:00
1:55 PM,60.8,17.6,19,30.19,10.0,NW,3.5,-,N/A,,Clear,310,2014-03-12 19:55:00
2:15 PM,62.6,15.8,16,30.17,10.0,South,8.1,-,N/A,,Clear,180,2014-03-12 20:15:00
2:35 PM,62.6,17.6,18,30.16,10.0,Calm,Calm,-,N/A,,Clear,0,2014-03-12 20:35:00
2:55 PM,62.6,15.8,16,30.14,10.0,North,8.1,-,N/A,,Clear,350,2014-03-12 20:55:00
3:15 PM,64.4,15.8,15,30.13,10.0,NE,3.5,-,N/A,,Clear,40,2014-03-12 21:15:00
3:35 PM,66.2,17.6,15,30.12,10.0,North,12.7,-,N/A,,Clear,350,2014-03-12 21:35:00
3:55 PM,64.4,15.8,15,30.12,10.0,SE,10.4,-,N/A,,Clear,140,2014-03-12 21:55:00
4:15 PM,66.2,15.8,14,30.11,10.0,Calm,Calm,-,N/A,,Clear,0,2014-03-12 22:15:00
4:35 PM,66.2,15.8,14,30.11,10.0,ESE,10.4,16.1,N/A,,Clear,110,2014-03-12 22:35:00
4:55 PM,66.2,15.8,14,30.10,10.0,SE,5.8,-,N/A,,Clear,140,2014-03-12 22:55:00
5:15 PM,68.0,15.8,13,30.09,10.0,East,9.2,19.6,N/A,,Clear,100,2014-03-12 23:15:00
5:35 PM,66.2,15.8,14,30.08,10.0,ESE,13.8,-,N/A,,Clear,110,2014-03-12 23:35:00
5:55 PM,66.2,15.8,14,30.08,10.0,ESE,8.1,-,N/A,,Clear,110,2014-03-12 23:55:00
6:15 PM,66.2,15.8,14,30.07,10.0,East,9.2,-,N/A,,Clear,90,2014-03-13 00:15:00
6:35 PM,66.2,14.0,13,30.07,10.0,ESE,11.5,16.1,N/A,,Clear,110,2014-03-13 00:35:00
6:55 PM,64.4,14.0,14,30.07,10.0,NE,13.8,18.4,N/A,,Clear,40,2014-03-13 00:55:00
7:15 PM,64.4,12.2,13,30.07,10.0,NE,12.7,18.4,N/A,,Clear,50,2014-03-13 01:15:00
7:35 PM,62.6,12.2,14,30.07,10.0,NE,13.8,21.9,N/A,,Clear,50,2014-03-13 01:35:00
7:55 PM,60.8,12.2,15,30.06,10.0,ENE,13.8,-,N/A,,Clear,60,2014-03-13 01:55:00
8:15 PM,60.8,12.2,15,30.06,10.0,NE,11.5,-,N/A,,Clear,50,2014-03-13 02:15:00
8:35 PM,59.0,12.2,16,30.06,10.0,ENE,11.5,-,N/A,,Clear,60,2014-03-13 02:35:00
8:55 PM,60.8,12.2,15,30.07,10.0,ENE,13.8,18.4,N/A,,Clear,60,2014-03-13 02:55:00
9:15 PM,60.8,12.2,15,30.07,10.0,ENE,13.8,21.9,N/A,,Clear,70,2014-03-13 03:15:00
9:35 PM,59.0,12.2,16,30.08,10.0,East,10.4,16.1,N/A,,Clear,80,2014-03-13 03:35:00
9:55 PM,57.2,12.2,17,30.08,10.0,ENE,11.5,-,N/A,,Mostly Cloudy,60,2014-03-13 03:55:00
10:15 PM,57.2,12.2,17,30.09,10.0,NE,9.2,-,N/A,,Mostly Cloudy,50,2014-03-13 04:15:00
10:35 PM,57.2,12.2,17,30.09,10.0,ENE,6.9,-,N/A,,Mostly Cloudy,60,2014-03-13 04:35:00
10:55 PM,55.4,14.0,20,30.09,10.0,Calm,Calm,-,N/A,,Partly Cloudy,0,2014-03-13 04:55:00
11:15 PM,55.4,14.0,20,30.09,10.0,East,4.6,-,N/A,,Mostly Cloudy,90,2014-03-13 05:15:00
11:35 PM,53.6,12.2,19,30.09,10.0,Calm,Calm,-,N/A,,Scattered Clouds,0,2014-03-13 05:35:00
11:55 PM,55.4,12.2,18,30.09,10.0,ENE,3.5,-,N/A,,Partly Cloudy,60,2014-03-13 05:55:00